Content
SEND FEEDBACK

Daily
Averages
Monthly
Summary
United States of America

ROHNERVILLE, CALIFORNIA


Home > North America > United States > California
Elevation: 390 feet     Latitude: 40 33N     Longitude: 124 07W

WEATHER
 
SELECT A DAY
Number of Records: 68,039;   Date Range: 9/21/11 - 12/16/14
 
SHARE

PRINT THIS DATA

[ ← Previous Day ]
WEATHER ALMANAC - FEBRUARY 22, 2013
[ Next Day → ]
[ °C ]   °F
Weather ElementAverageHighLow
Temperature42.9 °F53.6 °F (12:35 pm)32 °F (5:15 am)
Dewpoint40.6 °F48.2 °F (4:55 pm)32 °F (5:15 am)
Humidity92.4 %100 % (12:35 am)58 % (12:35 pm)
Barometer30.28 in30.32 in (1:15 am)30.22 in (6:15 pm)
Wind Speed5 mph12.7 mph (8:35 pm)
Weather ElementAverage
Visibility7.8 mi
Wind DirectionESE (127.7 °)

Weather ElementTotal
Precipitation0.25 in
Heating Degree Days22.2 (Base 65)
Averaged from 71 records on February 22, 2013
WEATHER CONDITIONS BREAKOUT
WIND DIRECTION BREAKOUT
WEATHER BY HOUR - FEBRUARY 22, 2013
[ °C ]   °F
Local TimeTemperatureDewpointHumidityBarometerVisibilityWind DirectionWind SpeedGust SpeedPrecipitationEventsConditions
12:35 AM37.4 °F37.4 °F100 %30.31 in10.0 miSE (140°)5.8 mphClear
12:55 AM37.4 °F37.4 °F100 %30.31 in10.0 miCalmClear
1:15 AM35.6 °F35.6 °F100 %30.32 in10.0 miCalmClear
1:35 AM35.6 °F35.6 °F100 %30.32 in9.0 miSE (140°)5.8 mphClear
1:55 AM37.4 °F37.4 °F100 %30.32 in10.0 miCalmMostly Cloudy
2:15 AM35.6 °F35.6 °F100 %30.31 in10.0 miSSE (150°)6.9 mphOvercast
2:35 AM35.6 °F35.6 °F100 %30.31 in10.0 miSE (130°)8.1 mphScattered Clouds
2:55 AM35.6 °F35.6 °F100 %30.31 in10.0 miESE (120°)5.8 mphMostly Cloudy
3:15 AM35.6 °F35.6 °F100 %30.31 in10.0 miCalmMostly Cloudy
3:35 AM35.6 °F35.6 °F100 %30.30 in9.0 miSE (140°)8.1 mphPartly Cloudy
3:55 AM33.8 °F33.8 °F100 %30.29 in10.0 miSE (130°)6.9 mphClear
4:15 AM35.6 °F35.6 °F100 %30.29 in10.0 miSE (130°)6.9 mphClear
4:35 AM35.6 °F35.6 °F100 %30.29 in10.0 miSE (140°)6.9 mphPartly Cloudy
4:55 AM33.8 °F33.8 °F100 %30.29 in10.0 miSE (130°)6.9 mphClear
5:15 AM32.0 °F32.0 °F100 %30.29 in1.0 miESE (110°)5.8 mphClear
5:35 AM33.8 °F33.8 °F100 %30.29 in1.8 miSE (140°)8.1 mphClear
5:55 AM32.0 °F32.0 °F100 %30.29 in0.8 miSE (130°)8.1 mph
6:15 AM33.8 °F33.8 °F100 %30.29 in9.0 miSE (130°)8.1 mphClear
6:35 AM33.8 °F33.8 °F100 %30.29 in3.0 miSE (140°)9.2 mphPartly Cloudy
6:55 AM33.8 °F33.8 °F100 %30.29 in10.0 miSE (140°)6.9 mphPartly Cloudy
7:15 AM35.6 °F35.6 °F100 %30.29 in10.0 miESE (110°)8.1 mphClear
7:35 AM35.6 °F35.6 °F100 %30.29 in10.0 miSE (140°)9.2 mphClear
7:55 AM37.4 °F37.4 °F100 %30.28 in10.0 miESE (120°)11.5 mphClear
8:15 AM37.4 °F37.4 °F100 %30.28 in10.0 miESE (110°)10.4 mphClear
8:35 AM37.4 °F37.4 °F100 %30.29 in10.0 miSE (140°)6.9 mphClear
8:55 AM37.4 °F37.4 °F100 %30.30 in10.0 miSSE (150°)5.8 mphClear
9:15 AM37.4 °F37.4 °F100 %30.31 in10.0 miSSE (150°)3.5 mphClear
9:35 AM41.0 °F41.0 °F100 %30.31 in10.0 miESE (120°)6.9 mphClear
9:55 AM42.8 °F41.0 °F93 %30.32 in10.0 miSE (130°)5.8 mphClear
10:15 AM44.6 °F41.0 °F87 %30.31 in10.0 miSE (140°)5.8 mphClear
10:35 AM46.4 °F41.0 °F81 %30.31 in10.0 miCalmClear
10:55 AM48.2 °F39.2 °F71 %30.32 in10.0 miCalmClear
11:15 AM48.2 °F37.4 °F66 %30.32 in10.0 miCalmClear
11:35 AM50.0 °F37.4 °F62 %30.31 in10.0 miCalmClear
11:55 AM50.0 °F39.2 °F66 %30.31 in10.0 miCalmClear
12:15 PM50.0 °F41.0 °F71 %30.30 in10.0 miNW (310°)4.6 mphClear
12:35 PM53.6 °F39.2 °F58 %30.30 in10.0 miNW (310°)6.9 mphClear
12:55 PM53.6 °F41.0 °F62 %30.29 in10.0 miNW (310°)3.5 mphPartly Cloudy
1:15 PM51.8 °F42.8 °F71 %30.27 in10.0 miCalmPartly Cloudy
1:35 PM51.8 °F44.6 °F76 %30.27 in10.0 miCalmClear
1:55 PM53.6 °F44.6 °F72 %30.26 in10.0 miCalmClear
2:15 PM53.6 °F44.6 °F72 %30.26 in10.0 miWNW (300°)8.1 mphClear
2:35 PM53.6 °F46.4 °F77 %30.25 in10.0 miWNW (300°)6.9 mphClear
2:55 PM51.8 °F46.4 °F82 %30.25 in10.0 miWNW (300°)6.9 mphClear
3:15 PM50.0 °F46.4 °F87 %30.25 in10.0 miNW (310°)10.4 mphClear
3:35 PM50.0 °F46.4 °F87 %30.25 in10.0 miNW (320°)8.1 mphMostly Cloudy
3:55 PM50.0 °F44.6 °F82 %30.25 in10.0 miNNW (340°)6.9 mphMostly Cloudy
4:15 PM50.0 °F44.6 °F82 %30.24 in10.0 miCalmOvercast
4:35 PM48.2 °F46.4 °F93 %30.24 in4.0 miCalmMostly Cloudy
4:55 PM48.2 °F48.2 °F100 %30.25 in3.0 miCalm0.02 inMostly Cloudy
5:15 PM46.4 °F46.4 °F100 %30.26 in5.0 miNNW (330°)3.5 mphOvercast
5:35 PM46.4 °F46.4 °F100 %30.24 in7.0 miCalm0.01 inOvercast
5:55 PM46.4 °F41.0 °F81 %30.23 in10.0 miCalm0.01 inOvercast
6:15 PM46.4 °F42.8 °F87 %30.22 in10.0 miCalmOvercast
6:35 PM46.4 °F46.4 °F100 %30.22 in10.0 miCalmOvercast
6:55 PM46.4 °F44.6 °F93 %30.26 in2.5 miCalmOvercast
7:15 PM44.6 °F44.6 °F100 %30.25 in3.0 miCalm0.03 inOvercast
7:35 PM44.6 °F44.6 °F100 %30.24 in7.0 miESE (110°)8.1 mph0.04 inOvercast
7:55 PM44.6 °F44.6 °F100 %30.24 in4.0 miSE (130°)8.1 mph0.04 inOvercast
8:15 PM44.6 °F44.6 °F100 %30.24 in3.0 miESE (120°)10.4 mphOvercast
8:35 PM44.6 °F44.6 °F100 %30.23 in3.0 miSE (130°)12.7 mph0.01 inOvercast
8:55 PM44.6 °F44.6 °F100 %30.24 in5.0 miESE (110°)6.9 mph0.01 inOvercast
9:15 PM44.6 °F44.6 °F100 %30.24 in7.0 miESE (110°)8.1 mphOvercast
9:35 PM44.6 °F44.6 °F100 %30.24 in2.5 miESE (110°)9.2 mphOvercast
9:55 PM44.6 °F44.6 °F100 %30.25 in1.8 miEast (100°)6.9 mph0.01 inOvercast
10:15 PM44.6 °F44.6 °F100 %30.26 in1.5 miCalm0.01 inOvercast
10:35 PM44.6 °F44.6 °F100 %30.27 in0.5 miNW (320°)5.8 mph0.03 inOvercast
10:55 PM44.6 °F44.6 °F100 %30.26 in7.0 miWNW (300°)5.8 mph0.03 inOvercast
11:15 PM46.4 °F46.4 °F100 %30.28 in5.0 miNW (320°)9.2 mphOvercast
11:35 PM44.6 °F44.6 °F100 %30.28 in5.0 miNW (320°)6.9 mphOvercast
11:55 PM44.6 °F44.6 °F100 %30.28 in3.0 miNW (310°)5.8 mphOvercast
Hourly data recorded from KFOT, located miles away from Rohnerville, California







STORIES FROM OUR PARTNERS